Wind_Speed
29 28 28 28 28 29 30 31 31 30 29 29 28 28 27 26 26 26 27 26 26 25 25 25 25 25 25 25 25 25 24 24 25 25 25 25 25 26 26 26 26 26 27
29 30 29 29 29 30 31 31 31 30 29 29 29 28 27 27 27 27 26 26 25 25 26 25 25 26 25 25 25 25 25 25 24 24 25 25 26 26 26 26 26 27 28
30 30 30 30 30 30 30 31 31 30 30 29 29 29 28 28 27 26 26 26 26 25 25 25 25 25 25 24 25 25 25 25 24 24 25 25 25 25 25 25 26 27 28
30 30 30 29 29 30 30 30 30 30 30 29 28 28 28 27 27 26 25 25 24 25 25 25 24 25 25 25 25 25 24 24 23 24 25 25 24 25 25 25 26 26 27
29 29 30 29 29 30 31 31 30 29 29 29 28 27 26 26 26 25 25 24 24 23 24 24 23 24 24 24 24 24 23 23 23 23 24 24 24 24 25 25 25 25 26
28 29 30 30 30 30 31 31 31 31 30 29 27 26 26 25 25 24 23 23 23 23 23 23 23 22 22 23 23 23 22 23 23 23 23 24 24 23 23 24 24 25 25
29 30 31 30 30 30 30 31 30 30 28 27 26 25 25 25 24 23 22 22 23 23 23 22 22 22 22 22 22 22 22 22 22 23 23 23 22 22 23 23 23 23 24
29 29 30 30 29 29 29 29 29 28 27 25 25 24 25 24 23 23 22 23 23 23 21 21 22 22 21 21 21 21 21 21 21 21 22 22 22 23 23 23 23 23 24
29 29 30 30 30 29 29 28 28 28 26 24 24 23 22 22 22 22 22 22 22 21 20 20 20 20 20 20 19 19 19 20 20 20 20 21 21 21 22 23 23 24 24
29 29 29 29 29 29 29 28 27 25 26 25 24 22 22 22 22 21 20 20 20 20 20 20 19 18 19 19 19 19 20 20 20 20 20 21 21 21 22 23 23 23 24
28 28 29 29 28 28 28 27 26 25 25 24 23 21 20 20 19 20 19 19 19 19 19 19 18 18 18 19 19 19 20 20 20 20 21 21 21 22 22 23 23 24 25
29 29 29 29 28 27 27 26 25 24 24 23 23 21 20 19 19 19 19 19 18 18 18 18 18 17 17 18 18 18 18 19 19 20 20 21 21 22 22 22 22 23 24
28 28 29 29 27 26 26 25 24 23 23 23 22 20 19 19 19 18 18 18 18 18 17 17 17 17 18 18 17 17 17 18 18 19 19 20 19 20 21 21 22 23 24
29 29 29 28 28 26 26 25 23 22 22 21 20 20 19 18 17 17 17 17 17 17 17 17 17 17 17 17 16 16 17 17 18 18 19 19 18 19 20 21 21 22 23
30 29 29 28 25 24 24 23 22 21 21 20 19 20 19 18 18 18 17 17 17 17 16 16 16 16 16 15 15 16 16 17 17 17 18 19 18 18 18 19 20 21 22
29 28 28 27 25 23 22 22 22 21 20 19 19 19 18 18 17 17 17 16 17 16 16 15 15 15 15 14 15 15 16 16 16 16 17 17 17 18 18 18 19 19 21
27 27 27 26 24 23 23 22 21 21 20 19 17 17 17 17 17 16 16 16 16 15 14 14 14 15 14 14 14 15 16 16 16 17 17 17 17 17 17 18 19 20 20
26 26 25 24 24 23 23 21 20 19 19 16 15 15 16 16 16 15 16 16 15 13 12 12 14 14 13 13 14 15 16 17 17 18 18 18 18 18 18 19 19 19 19
25 26 25 24 23 22 22 20 19 18 17 15 14 14 15 15 15 15 15 14 13 12 12 13 13 13 12 13 14 16 16 16 17 18 18 18 18 18 18 18 19 18 18
26 25 24 23 22 21 21 20 18 17 16 15 12 12 13 13 14 14 13 12 11 11 11 11 11 12 13 14 15 15 15 16 16 17 17 17 17 18 18 18 17 17 17
25 25 23 22 21 20 20 18 17 16 15 13 11 11 12 13 12 12 12 10 10 11 11 11 11 12 13 14 15 15 16 16 16 16 16 17 17 18 18 17 16 16 16
24 24 23 21 20 19 18 16 16 15 14 12 10 10 11 11 11 11 11 10 10 10 11 11 12 13 14 14 14 15 16 16 17 17 17 17 17 17 17 16 16 15 15
24 23 21 19 18 17 16 15 14 14 13 10 9 10 10 10 11 12 11 10 9 10 11 11 12 13 14 14 14 16 17 17 17 17 17 18 17 17 17 17 16 16 16
22 20 19 17 16 15 14 13 13 11 10 8 9 9 9 10 11 11 10 10 9 10 11 12 12 13 13 14 15 16 17 17 17 17 17 18 17 18 17 17 16 16 17
20 18 16 16 14 13 12 12 10 9 8 7 8 8 8 8 9 9 9 9 10 11 11 11 12 13 14 14 15 16 16 17 17 18 17 18 18 18 17 17 17 17 17
17 16 15 13 12 11 10 10 8 8 7 6 6 6 6 7 8 8 9 9 10 11 12 12 13 13 14 14 15 16 17 18 18 18 18 18 18 18 18 17 17 17 18
Wind_Direction
307 308 308 307 306 304 305 304 306 304 302 300 300 299 299 300 299 294 295 290 291 291 289 287 287 286 286 286 283 281 280 280 278 275 272 269 267 266 263 261 259 257 258
309 309 309 308 305 303 304 304 304 303 302 300 299 300 299 299 299 297 295 292 291 289 291 289 288 286 285 283 282 281 279 278 277 276 273 270 268 267 264 262 262 260 258
310 310 307 305 305 303 302 302 302 300 300 300 299 299 299 298 298 297 297 293 292 291 291 290 287 286 285 283 282 280 280 278 276 276 274 270 266 265 265 265 263 261 259
309 310 309 308 308 306 306 303 302 301 300 301 300 299 298 299 299 297 297 297 295 293 293 289 286 286 285 283 282 281 280 278 276 276 274 271 266 263 262 264 263 261 259
308 308 308 309 309 309 308 305 302 301 300 300 299 298 297 298 298 297 296 297 296 296 296 292 288 288 287 284 284 282 280 278 277 277 276 273 269 267 264 264 263 261 260
307 310 312 311 311 310 308 306 305 306 302 299 298 299 298 297 298 298 298 298 299 296 294 291 289 288 289 287 285 283 281 279 278 279 278 275 271 268 264 264 263 262 262
310 313 313 313 312 311 311 310 309 307 304 300 297 299 299 299 296 297 299 298 298 296 293 291 289 288 288 285 285 283 283 282 281 281 280 276 271 267 264 264 263 261 261
313 312 312 312 312 312 313 312 310 308 305 303 302 301 300 301 299 297 298 298 298 298 295 291 291 290 288 284 282 282 283 283 282 283 282 278 274 270 265 265 264 263 261
313 312 311 310 311 311 311 311 311 311 309 305 307 306 303 302 300 300 299 298 297 297 295 294 293 291 289 287 284 285 285 285 285 285 284 280 276 272 268 265 265 264 262
313 312 312 312 311 310 310 310 311 310 309 308 308 308 304 300 301 301 301 301 299 297 295 295 294 291 289 289 287 285 285 286 287 286 284 283 279 275 270 268 266 265 264
313 312 312 312 311 311 310 310 310 307 308 309 309 308 306 305 305 304 304 304 302 299 297 297 295 292 291 290 288 287 287 287 290 290 286 284 283 280 274 270 268 268 265
312 313 312 310 309 309 310 310 309 306 308 308 309 309 306 306 307 306 307 305 304 303 300 298 296 294 294 293 292 292 291 291 290 289 290 287 284 281 277 275 273 272 269
312 312 311 310 309 308 308 310 311 308 306 306 307 308 308 308 308 307 308 308 306 304 302 301 296 293 294 294 293 294 294 294 293 294 295 292 290 287 280 277 276 275 273
310 310 309 308 309 309 310 313 314 312 308 307 308 310 308 308 310 309 309 309 308 307 305 303 300 298 296 294 294 294 295 297 296 298 298 298 294 290 285 280 278 278 275
310 311 310 310 312 312 312 313 315 313 310 308 310 311 309 307 310 311 311 311 309 308 306 304 304 303 300 297 294 296 297 300 300 300 300 299 296 292 289 284 281 279 279
314 312 312 313 313 314 316 316 314 312 310 309 311 309 308 309 312 313 313 312 311 308 306 305 306 305 303 301 297 295 297 300 301 302 303 302 301 297 294 289 286 283 281
320 316 314 313 315 315 313 314 314 313 311 310 310 309 309 310 312 314 313 315 314 310 305 306 309 310 309 307 305 304 301 301 301 302 303 302 302 301 299 296 294 290 286
321 320 317 314 315 316 314 314 316 315 314 311 310 309 311 314 314 315 314 313 314 315 311 309 312 314 312 311 310 310 305 303 303 303 302 300 300 303 301 298 297 294 289
322 321 320 316 314 315 315 313 316 315 313 312 308 307 310 315 316 317 318 316 317 317 317 316 316 316 315 315 316 316 314 311 309 308 307 304 303 304 305 299 297 295 292
323 323 321 319 316 314 313 311 315 315 314 314 309 308 311 316 317 319 320 320 319 320 321 321 320 319 319 319 320 322 322 318 315 313 312 310 309 307 309 307 304 300 298
321 321 321 319 318 316 314 312 313 314 314 313 311 311 314 319 322 326 325 321 320 321 323 323 323 324 326 326 326 326 325 321 319 318 317 314 311 310 310 309 306 305 304
320 321 321 320 319 318 315 313 314 313 314 312 313 314 315 320 324 331 330 325 323 325 328 328 328 328 329 331 332 332 329 324 320 319 320 320 319 317 316 314 310 309 308
319 321 323 323 321 319 318 316 316 316 315 312 312 315 317 323 326 331 335 331 328 329 329 331 333 332 332 334 337 336 332 329 326 324 325 324 323 321 319 319 318 315 312
317 321 323 322 321 320 320 319 319 321 320 317 315 318 323 329 331 333 338 339 335 331 330 333 336 337 337 338 338 338 338 335 334 333 332 333 329 324 320 320 318 315 313
316 318 319 320 321 322 324 325 326 326 326 322 321 321 326 330 333 335 338 339 338 335 336 340 342 341 341 341 341 341 340 338 338 337 337 335 333 330 325 322 320 318 316
314 316 318 319 321 326 327 329 329 326 324 324 327 328 329 332 336 338 338 340 340 341 346 349 347 344 345 345 344 343 342 342 342 341 340 337 333 330 327 324 321 320 319
Height
5853 5850 5846 5842 5838 5835 5831 5828 5824 5820 5817 5815 5811 5808 5806 5803 5801 5799 5797 5795 5792 5790 5788 5787 5786 5785 5783 5782 5781 5780 5779 5778 5776 5776 5775 5774 5774 5774 5773 5773 5774 5774 5775
5847 5844 5840 5836 5832 5828 5825 5821 5817 5814 5811 5807 5805 5802 5799 5797 5795 5793 5790 5788 5786 5784 5782 5780 5779 5777 5775 5775 5774 5773 5772 5771 5769 5768 5768 5767 5767 5766 5766 5766 5766 5766 5767
5840 5837 5834 5830 5826 5822 5818 5815 5811 5807 5804 5801 5799 5796 5793 5790 5788 5786 5783 5781 5778 5776 5774 5772 5771 5769 5769 5768 5767 5766 5765 5764 5762 5761 5760 5759 5759 5759 5759 5759 5759 5759 5759
5834 5830 5827 5823 5820 5816 5812 5809 5805 5801 5798 5795 5792 5789 5786 5784 5782 5779 5777 5774 5771 5769 5767 5765 5764 5763 5762 5761 5760 5759 5757 5756 5755 5754 5752 5752 5751 5751 5752 5751 5751 5751 5751
5828 5824 5820 5816 5813 5809 5806 5802 5798 5795 5791 5788 5784 5782 5779 5777 5775 5773 5770 5768 5766 5763 5761 5759 5758 5756 5755 5754 5752 5751 5750 5748 5747 5746 5745 5744 5743 5743 5743 5743 5743 5743 5743
5823 5819 5814 5810 5807 5803 5799 5795 5791 5787 5784 5780 5777 5774 5772 5770 5769 5766 5764 5762 5760 5757 5755 5753 5752 5750 5748 5747 5745 5744 5743 5741 5740 5739 5738 5737 5736 5735 5735 5735 5735 5735 5735
5817 5813 5809 5805 5801 5797 5793 5788 5785 5780 5777 5774 5770 5767 5765 5763 5761 5760 5758 5756 5753 5751 5749 5747 5746 5744 5742 5740 5739 5737 5736 5734 5733 5732 5731 5729 5728 5728 5728 5728 5728 5728 5727
5812 5807 5803 5799 5795 5791 5787 5782 5778 5774 5771 5767 5764 5761 5759 5756 5754 5753 5751 5749 5747 5745 5743 5741 5739 5737 5736 5734 5732 5730 5729 5728 5727 5725 5724 5723 5722 5721 5720 5720 5720 5720 5720
5806 5802 5798 5794 5790 5786 5781 5777 5773 5769 5764 5762 5759 5756 5753 5751 5749 5747 5745 5743 5741 5739 5737 5735 5732 5730 5729 5728 5727 5725 5723 5722 5720 5719 5717 5716 5715 5714 5713 5713 5713 5713 5713
5800 5796 5792 5788 5784 5780 5776 5772 5767 5764 5760 5757 5754 5751 5748 5746 5744 5741 5739 5737 5735 5733 5731 5729 5727 5725 5723 5722 5721 5720 5718 5717 5715 5713 5711 5710 5709 5707 5707 5706 5706 5705 5705
5794 5790 5785 5782 5778 5774 5770 5766 5762 5758 5755 5751 5748 5745 5742 5740 5739 5737 5734 5732 5730 5727 5725 5724 5721 5720 5718 5717 5715 5714 5712 5710 5709 5707 5705 5703 5702 5701 5700 5699 5699 5698 5698
5788 5783 5780 5776 5772 5768 5764 5760 5756 5753 5750 5746 5743 5740 5738 5736 5733 5731 5728 5726 5724 5722 5720 5718 5716 5714 5713 5711 5710 5708 5706 5705 5703 5701 5699 5697 5695 5694 5693 5692 5692 5691 5690
5782 5777 5773 5770 5766 5762 5757 5753 5750 5747 5745 5741 5738 5735 5733 5731 5728 5726 5723 5721 5719 5717 5715 5713 5711 5709 5708 5706 5704 5703 5701 5699 5697 5696 5693 5691 5688 5687 5686 5686 5685 5684 5683
5776 5771 5767 5763 5759 5755 5751 5748 5745 5742 5739 5736 5733 5730 5728 5726 5724 5721 5718 5716 5714 5712 5710 5708 5706 5704 5702 5701 5699 5698 5696 5694 5692 5690 5688 5685 5683 5682 5680 5679 5678 5677 5676
5768 5763 5759 5754 5751 5748 5746 5742 5739 5736 5733 5730 5728 5726 5724 5721 5719 5716 5714 5711 5709 5707 5705 5703 5701 5699 5697 5695 5694 5693 5692 5690 5687 5685 5683 5681 5678 5676 5674 5673 5672 5670 5669
5762 5757 5752 5748 5745 5743 5740 5737 5734 5731 5728 5725 5723 5721 5719 5717 5714 5712 5709 5707 5705 5702 5700 5698 5696 5694 5693 5691 5689 5688 5687 5684 5682 5680 5678 5676 5673 5671 5669 5667 5665 5664 5662
5755 5751 5747 5743 5740 5737 5734 5732 5729 5726 5723 5720 5718 5716 5714 5712 5710 5708 5705 5703 5701 5698 5696 5694 5692 5690 5688 5687 5685 5684 5682 5680 5678 5676 5673 5671 5668 5665 5663 5662 5660 5658 5656
5751 5746 5742 5738 5735 5732 5729 5727 5724 5721 5718 5715 5714 5712 5710 5709 5706 5704 5702 5699 5697 5694 5692 5690 5688 5687 5685 5683 5682 5680 5678 5675 5673 5671 5668 5666 5663 5661 5658 5657 5654 5652 5650
5746 5742 5737 5734 5731 5727 5725 5722 5720 5717 5714 5711 5710 5708 5707 5705 5703 5700 5698 5696 5693 5691 5689 5687 5685 5684 5682 5680 5678 5676 5673 5671 5668 5666 5663 5661 5658 5656 5653 5651 5649 5646 5644
5741 5737 5733 5729 5726 5723 5720 5718 5716 5713 5710 5707 5706 5705 5703 5702 5699 5697 5695 5693 5691 5689 5687 5685 5683 5681 5679 5677 5675 5672 5669 5667 5665 5662 5659 5656 5654 5651 5648 5646 5643 5641 5639
5737 5733 5729 5725 5722 5719 5716 5714 5712 5709 5706 5704 5703 5702 5700 5699 5696 5694 5692 5690 5688 5686 5685 5683 5681 5678 5676 5674 5671 5668 5666 5663 5661 5658 5655 5652 5650 5647 5644 5641 5639 5636 5634
5732 5728 5724 5721 5718 5715 5713 5710 5708 5706 5704 5702 5700 5699 5698 5696 5694 5692 5690 5688 5686 5684 5682 5680 5678 5676 5673 5671 5668 5666 5663 5660 5657 5654 5651 5648 5646 5643 5639 5636 5634 5632 5629
5728 5724 5720 5717 5714 5711 5709 5707 5705 5703 5701 5700 5698 5697 5696 5694 5692 5690 5688 5686 5684 5682 5680 5678 5676 5674 5671 5668 5666 5663 5660 5657 5654 5651 5648 5645 5641 5638 5635 5633 5630 5628 5625
5724 5720 5717 5714 5711 5708 5706 5704 5702 5700 5699 5698 5696 5695 5694 5692 5690 5688 5686 5684 5683 5681 5679 5676 5674 5671 5669 5666 5663 5660 5657 5654 5651 5648 5644 5641 5637 5634 5631 5629 5626 5623 5621
5720 5717 5714 5711 5709 5706 5704 5702 5700 5699 5697 5696 5695 5694 5692 5691 5689 5687 5685 5683 5681 5679 5677 5675 5672 5669 5667 5664 5661 5658 5655 5652 5648 5645 5641 5638 5634 5631 5628 5625 5622 5619 5616
5717 5714 5711 5709 5706 5705 5703 5701 5700 5698 5697 5696 5694 5693 5691 5690 5688 5686 5684 5682 5680 5678 5676 5673 5671 5668 5665 5662 5659 5656 5653 5649 5646 5642 5638 5635 5631 5628 5624 5621 5618 5615 5612